EA3GKP-7 Weather Reports


time (UTC)temp
C
wind
direction
speed
KPH
gust
KPH
rain 1hr
cm
rain 24hr
cm
rain mn
cm
humidity
%
barometer
mb
20260507142225 19 0.0 0.0 0.00 0.00 0.00 10 1016.6
20260507141725 19 0.0 0.0 0.00 0.00 0.00 10 1016.6
20260507141225 19 0.0 0.0 0.00 0.00 0.00 10 1016.7
20260507140725 20 0.0 0.0 0.00 0.00 0.00 10 1016.9
20260507140224 20 0.0 0.0 0.00 0.00 0.00 10 1016.8
20260507135724 20 0.0 0.0 0.00 0.00 0.00 10 1016.9
20260507135225 20 0.0 0.0 0.00 0.00 0.00 10 1016.8
20260507134724 20 0.0 0.0 0.00 0.00 0.00 98 1017.0
20260507134224 19 0.0 0.0 0.00 0.00 0.00 10 1017.2
20260507133725 20 0.0 0.0 0.00 0.00 0.00 96 1017.2
20260507133225 20 0.0 0.0 0.00 0.00 0.00 99 1017.3
20260507132724 20 0.0 0.0 0.00 0.00 0.00 10 1017.3
20260507132225 19 0.0 0.0 0.00 0.00 0.00 10 1017.3
20260507131724 20 0.0 0.0 0.00 0.00 0.00 10 1017.3
20260507131224 19 0.0 0.0 0.00 0.00 0.00 10 1017.4
20260507130724 20 0.0 0.0 0.00 0.00 0.00 10 1017.5
20260507130224 20 0.0 0.0 0.00 0.00 0.00 99 1017.5
20260507125724 20 0.0 0.0 0.00 0.00 0.00 10 1017.5
20260507125224 20 0.0 0.0 0.00 0.00 0.00 10 1017.6
20260507124725 20 0.0 0.0 0.00 0.00 0.00 10 1017.8
20260507124224 20 0.0 0.0 0.00 0.00 0.00 10 1017.7
20260507123724 20 0.0 0.0 0.00 0.00 0.00 10 1017.7
20260507123224 20 0.0 0.0 0.00 0.00 0.00 10 1017.8
20260507122724 20 0.0 0.0 0.00 0.00 0.00 10 1017.8
20260507122224 20 0.0 0.0 0.00 0.00 0.00 98 1017.9
20260507121724 20 0.0 0.0 0.00 0.00 0.00 10 1017.7
20260507121224 21 0.0 0.0 0.00 0.00 0.00 97 1017.8
20260507120724 20 0.0 0.0 0.00 0.00 0.00 10 1017.9
20260507120224 20 0.0 0.0 0.00 0.00 0.00 99 1017.9
20260507115724 21 0.0 0.0 0.00 0.00 0.00 93 1017.9
20260507115224 21 0.0 0.0 0.00 0.00 0.00 95 1017.9
20260507114724 21 0.0 0.0 0.00 0.00 0.00 97 1018.0
20260507114224 21 0.0 0.0 0.00 0.00 0.00 10 1017.9
20260507113724 20 0.0 0.0 0.00 0.00 0.00 10 1018.0
20260507113226 20 0.0 0.0 0.00 0.00 0.00 10 1018.0
20260507112724 20 0.0 0.0 0.00 0.00 0.00 10 1018.0
20260507112224 20 0.0 0.0 0.00 0.00 0.00 10 1018.1
20260507111724 21 0.0 0.0 0.00 0.00 0.00 99 1017.9
20260507111224 21 0.0 0.0 0.00 0.00 0.00 10 1018.1
20260507110724 21 0.0 0.0 0.00 0.00 0.00 99 1018.0
20260507110224 21 0.0 0.0 0.00 0.00 0.00 95 1018.0
20260507105724 21 0.0 0.0 0.00 0.00 0.00 98 1018.2
20260507105224 21 0.0 0.0 0.00 0.00 0.00 99 1018.3
20260507104724 21 0.0 0.0 0.00 0.00 0.00 98 1018.1
20260507104224 20 0.0 0.0 0.00 0.00 0.00 10 1018.3
20260507103724 20 0.0 0.0 0.00 0.00 0.00 10 1018.2
20260507103224 21 0.0 0.0 0.00 0.00 0.00 10 1018.4
20260507102724 20 0.0 0.0 0.00 0.00 0.00 10 1018.4
20260507102224 20 0.0 0.0 0.00 0.00 0.00 10 1018.6
20260507101724 21 0.0 0.0 0.00 0.00 0.00 97 1018.5
20260507101224 21 0.0 0.0 0.00 0.00 0.00 10 1018.6
20260507100724 21 0.0 0.0 0.00 0.00 0.00 94 1018.6
20260507100224 21 0.0 0.0 0.00 0.00 0.00 94 1018.6
20260507095724 21 0.0 0.0 0.00 0.00 0.00 93 1018.6
20260507095224 21 0.0 0.0 0.00 0.00 0.00 95 1018.7
20260507094724 21 0.0 0.0 0.00 0.00 0.00 95 1018.5
20260507094224 19 0.0 0.0 0.00 0.00 0.00 10 1018.6
20260507093724 20 0.0 0.0 0.00 0.00 0.00 10 1018.6
20260507093224 21 0.0 0.0 0.00 0.00 0.00 96 1018.5
20260507092724 20 0.0 0.0 0.00 0.00 0.00 10 1018.6
20260507092224 20 0.0 0.0 0.00 0.00 0.00 10 1018.6
20260507091724 20 0.0 0.0 0.00 0.00 0.00 10 1018.4
20260507091224 20 0.0 0.0 0.00 0.00 0.00 10 1018.5
20260507090724 20 0.0 0.0 0.00 0.00 0.00 10 1018.5
20260507090224 20 0.0 0.0 0.00 0.00 0.00 10 1018.5
20260507085724 20 0.0 0.0 0.00 0.00 0.00 10 1018.2
20260507085224 20 0.0 0.0 0.00 0.00 0.00 10 1018.2
20260507084724 20 0.0 0.0 0.00 0.00 0.00 10 1018.3
20260507084224 19 0.0 0.0 0.00 0.00 0.00 10 1018.3
20260507083724 18 0.0 0.0 0.00 0.00 0.00 10 1018.4
20260507083224 18 0.0 0.0 0.00 0.00 0.00 10 1018.5
20260507082724 18 0.0 0.0 0.00 0.00 0.00 10 1018.4
20260507082224 18 0.0 0.0 0.00 0.00 0.00 10 1018.5
20260507081724 18 0.0 0.0 0.00 0.00 0.00 10 1018.4
20260507081224 18 0.0 0.0 0.00 0.00 0.00 10 1018.4
20260507080724 18 0.0 0.0 0.00 0.00 0.00 10 1018.3
20260507080224 18 0.0 0.0 0.00 0.00 0.00 10 1018.3
20260507075724 18 0.0 0.0 0.00 0.00 0.00 10 1018.5
20260507075224 18 0.0 0.0 0.00 0.00 0.00 10 1018.4
20260507074724 18 0.0 0.0 0.00 0.00 0.00 10 1018.4
20260507074224 18 0.0 0.0 0.00 0.00 0.00 10 1018.4
20260507073724 19 0.0 0.0 0.00 0.00 0.00 10 1018.4
20260507073224 18 0.0 0.0 0.00 0.00 0.00 10 1018.5
20260507072724 18 0.0 0.0 0.00 0.00 0.00 10 1018.5
20260507072224 18 0.0 0.0 0.00 0.00 0.00 10 1018.5
20260507071724 19 0.0 0.0 0.00 0.00 0.00 10 1018.4
20260507071224 19 0.0 0.0 0.00 0.00 0.00 10 1018.4
20260507070724 18 0.0 0.0 0.00 0.00 0.00 10 1018.4
20260507070224 18 0.0 0.0 0.00 0.00 0.00 10 1018.3
20260507065724 18 0.0 0.0 0.00 0.00 0.00 10 1018.3
20260507065224 18 0.0 0.0 0.00 0.00 0.00 10 1018.4
20260507064724 18 0.0 0.0 0.00 0.00 0.00 10 1018.2
20260507064224 18 0.0 0.0 0.00 0.00 0.00 10 1018.1
20260507063724 18 0.0 0.0 0.00 0.00 0.00 10 1018.1
20260507063224 18 0.0 0.0 0.00 0.00 0.00 10 1018.1
20260507062724 18 0.0 0.0 0.00 0.00 0.00 10 1018.0
20260507062224 18 0.0 0.0 0.00 0.00 0.00 10 1018.0
20260507061724 17 0.0 0.0 0.00 0.00 0.00 10 1017.9
20260507061224 17 0.0 0.0 0.00 0.00 0.00 10 1017.9
20260507060724 17 0.0 0.0 0.00 0.00 0.00 10 1017.9
20260507060224 17 0.0 0.0 0.00 0.00 0.00 10 1017.8
20260507055724 17 0.0 0.0 0.00 0.00 0.00 10 1017.8
20260507055224 17 0.0 0.0 0.00 0.00 0.00 10 1017.8
20260507054724 17 0.0 0.0 0.00 0.00 0.00 10 1017.8
20260507054224 17 0.0 0.0 0.00 0.00 0.00 10 1017.7
20260507053724 16 0.0 0.0 0.00 0.00 0.00 10 1017.7
20260507053224 16 0.0 0.0 0.00 0.00 0.00 10 1017.7
20260507052724 16 0.0 0.0 0.00 0.00 0.00 10 1017.6
20260507052224 16 0.0 0.0 0.00 0.00 0.00 10 1017.7
20260507051724 16 0.0 0.0 0.00 0.00 0.00 10 1017.6
20260507051224 16 0.0 0.0 0.00 0.00 0.00 10 1017.5
20260507050724 16 0.0 0.0 0.00 0.00 0.00 10 1017.5
20260507050224 16 0.0 0.0 0.00 0.00 0.00 10 1017.4
20260507045724 16 0.0 0.0 0.00 0.00 0.00 10 1017.2
20260507045224 16 0.0 0.0 0.00 0.00 0.00 10 1017.3
20260507044724 16 0.0 0.0 0.00 0.00 0.00 10 1017.3
20260507044224 16 0.0 0.0 0.00 0.00 0.00 10 1017.3
20260507043724 16 0.0 0.0 0.00 0.00 0.00 10 1017.3
20260507043224 16 0.0 0.0 0.00 0.00 0.00 10 1017.3
20260507042724 17 0.0 0.0 0.00 0.00 0.00 10 1017.3
20260507042224 17 0.0 0.0 0.00 0.00 0.00 10 1017.3
20260507041724 16 0.0 0.0 0.00 0.00 0.00 10 1017.3
20260507041224 16 0.0 0.0 0.00 0.00 0.00 10 1017.2
20260507040724 17 0.0 0.0 0.00 0.00 0.00 10 1017.2
20260507040224 16 0.0 0.0 0.00 0.00 0.00 10 1017.3
20260507035724 16 0.0 0.0 0.00 0.00 0.00 10 1017.2
20260507035224 17 0.0 0.0 0.00 0.00 0.00 10 1017.3
20260507034724 17 0.0 0.0 0.00 0.00 0.00 10 1017.2
20260507034224 17 0.0 0.0 0.00 0.00 0.00 10 1017.3
20260507033724 17 0.0 0.0 0.00 0.00 0.00 10 1017.2
20260507033223 17 0.0 0.0 0.00 0.00 0.00 10 1017.3
20260507032724 17 0.0 0.0 0.00 0.00 0.00 10 1017.4
20260507032249 17 0.0 0.0 0.00 0.00 0.00 10 1017.4
20260507031724 17 0.0 0.0 0.00 0.00 0.00 10 1017.4
20260507031224 17 0.0 0.0 0.00 0.00 0.00 10 1017.4
20260507030724 17 0.0 0.0 0.00 0.00 0.00 10 1017.4
20260507030223 17 0.0 0.0 0.00 0.00 0.00 10 1017.4
20260507025724 17 0.0 0.0 0.00 0.00 0.00 10 1017.4
20260507025223 17 0.0 0.0 0.00 0.00 0.00 10 1017.5
20260507024724 17 0.0 0.0 0.00 0.00 0.00 10 1017.4
20260507024224 17 0.0 0.0 0.00 0.00 0.00 10 1017.4
20260507023724 17 0.0 0.0 0.00 0.00 0.00 10 1017.3
20260507023224 17 0.0 0.0 0.00 0.00 0.00 10 1017.3
20260507022723 17 0.0 0.0 0.00 0.00 0.00 10 1017.4
20260507022224 17 0.0 0.0 0.00 0.00 0.00 10 1017.3
20260507021723 17 0.0 0.0 0.00 0.00 0.00 10 1017.4
20260507021223 17 0.0 0.0 0.00 0.00 0.00 10 1017.3
20260507020723 17 0.0 0.0 0.00 0.00 0.00 10 1017.2
20260507020223 17 0.0 0.0 0.00 0.00 0.00 10 1017.3
20260507015723 17 0.0 0.0 0.00 0.00 0.00 10 1017.3
20260507015223 17 0.0 0.0 0.00 0.00 0.00 10 1017.4
20260507014723 17 0.0 0.0 0.00 0.00 0.00 10 1017.4
20260507014223 17 0.0 0.0 0.00 0.00 0.00 10 1017.4
20260507013723 17 0.0 0.0 0.00 0.00 0.00 10 1017.4
20260507013223 17 0.0 0.0 0.00 0.00 0.00 10 1017.5
20260507012723 17 0.0 0.0 0.00 0.00 0.00 10 1017.4
20260507012223 17 0.0 0.0 0.00 0.00 0.00 10 1017.5
20260507011723 17 0.0 0.0 0.00 0.00 0.00 10 1017.5
20260507011223 17 0.0 0.0 0.00 0.00 0.00 10 1017.5
20260507010723 17 0.0 0.0 0.00 0.00 0.00 10 1017.4
20260507010223 17 0.0 0.0 0.00 0.00 0.00 10 1017.5
20260507005723 17 0.0 0.0 0.00 0.00 0.00 10 1017.6
20260507005223 17 0.0 0.0 0.00 0.00 0.00 10 1017.6
20260507004723 17 0.0 0.0 0.00 0.00 0.00 10 1017.6
20260507004223 17 0.0 0.0 0.00 0.00 0.00 10 1017.7
20260507003723 17 0.0 0.0 0.00 0.00 0.00 10 1017.7
20260507003223 17 0.0 0.0 0.00 0.00 0.00 10 1017.7
20260507002723 17 0.0 0.0 0.00 0.00 0.00 10 1017.6
20260507002223 17 0.0 0.0 0.00 0.00 0.00 10 1017.7
20260507001723 17 0.0 0.0 0.00 0.00 0.00 10 1017.7
20260507001223 17 0.0 0.0 0.00 0.00 0.00 10 1017.7
20260507000723 17 0.0 0.0 0.00 0.00 0.00 10 1017.8
20260507000223 17 0.0 0.0 0.00 0.00 0.00 10 1017.8
20260506235723 17 0.0 0.0 0.00 0.00 0.00 10 1017.8
20260506235223 17 0.0 0.0 0.00 0.00 0.00 10 1017.8
20260506234723 17 0.0 0.0 0.00 0.00 0.00 10 1017.8
20260506234223 17 0.0 0.0 0.00 0.00 0.00 10 1017.8
20260506233723 17 0.0 0.0 0.00 0.00 0.00 10 1017.8
20260506233223 18 0.0 0.0 0.00 0.00 0.00 10 1017.7
20260506232723 18 0.0 0.0 0.00 0.00 0.00 10 1017.6
20260506232223 18 0.0 0.0 0.00 0.00 0.00 10 1017.7
20260506231723 17 0.0 0.0 0.00 0.00 0.00 10 1017.7
20260506231223 17 0.0 0.0 0.00 0.00 0.00 10 1017.7
20260506230723 17 0.0 0.0 0.00 0.00 0.00 10 1017.7
20260506230223 17 0.0 0.0 0.00 0.00 0.00 10 1017.7
20260506225723 17 0.0 0.0 0.00 0.00 0.00 10 1017.8
20260506225224 17 0.0 0.0 0.00 0.00 0.00 10 1017.8
20260506224723 17 0.0 0.0 0.00 0.00 0.00 10 1017.6
20260506224223 17 0.0 0.0 0.00 0.00 0.00 10 1017.7
20260506223723 17 0.0 0.0 0.00 0.00 0.00 10 1017.6
20260506223223 17 0.0 0.0 0.00 0.00 0.00 10 1017.6
20260506222723 17 0.0 0.0 0.00 0.00 0.00 10 1017.6
20260506222223 17 0.0 0.0 0.00 0.00 0.00 10 1017.6
20260506221723 17 0.0 0.0 0.00 0.00 0.00 10 1017.8
20260506221223 17 0.0 0.0 0.00 0.00 0.00 10 1017.7
20260506220723 17 0.0 0.0 0.00 0.00 0.00 10 1017.7
20260506220223 17 0.0 0.0 0.00 0.00 0.00 10 1017.6
20260506215723 17 0.0 0.0 0.00 0.00 0.00 10 1017.6
20260506215223 17 0.0 0.0 0.00 0.00 0.00 10 1017.6
20260506214723 17 0.0 0.0 0.00 0.00 0.00 10 1017.7
20260506214223 17 0.0 0.0 0.00 0.00 0.00 10 1017.6
20260506213723 17 0.0 0.0 0.00 0.00 0.00 10 1017.6
20260506213223 17 0.0 0.0 0.00 0.00 0.00 10 1017.6
20260506212723 17 0.0 0.0 0.00 0.00 0.00 10 1017.6
20260506212223 18 0.0 0.0 0.00 0.00 0.00 10 1017.6
20260506211723 18 0.0 0.0 0.00 0.00 0.00 10 1017.6
20260506211223 18 0.0 0.0 0.00 0.00 0.00 10 1017.7
20260506210723 18 0.0 0.0 0.00 0.00 0.00 10 1017.6
20260506210223 18 0.0 0.0 0.00 0.00 0.00 10 1017.6
20260506205723 18 0.0 0.0 0.00 0.00 0.00 10 1017.6
20260506205223 18 0.0 0.0 0.00 0.00 0.00 10 1017.6
20260506204723 18 0.0 0.0 0.00 0.00 0.00 10 1017.5
20260506204223 18 0.0 0.0 0.00 0.00 0.00 10 1017.4
20260506203723 18 0.0 0.0 0.00 0.00 0.00 10 1017.3
20260506203223 18 0.0 0.0 0.00 0.00 0.00 10 1017.4
20260506202723 18 0.0 0.0 0.00 0.00 0.00 10 1017.3
20260506202223 18 0.0 0.0 0.00 0.00 0.00 10 1017.2
20260506201723 18 0.0 0.0 0.00 0.00 0.00 10 1017.0
20260506201223 18 0.0 0.0 0.00 0.00 0.00 10 1016.9
20260506200723 18 0.0 0.0 0.00 0.00 0.00 10 1016.8
20260506200223 18 0.0 0.0 0.00 0.00 0.00 10 1016.8
20260506195723 18 0.0 0.0 0.00 0.00 0.00 10 1016.7
20260506195223 18 0.0 0.0 0.00 0.00 0.00 10 1016.6
20260506194723 18 0.0 0.0 0.00 0.00 0.00 10 1016.6
20260506194223 18 0.0 0.0 0.00 0.00 0.00 10 1016.4
20260506193723 18 0.0 0.0 0.00 0.00 0.00 97 1016.4
20260506193223 19 0.0 0.0 0.00 0.00 0.00 95 1016.2
20260506192723 18 0.0 0.0 0.00 0.00 0.00 94 1016.2
20260506192223 19 0.0 0.0 0.00 0.00 0.00 93 1016.2
20260506191723 18 0.0 0.0 0.00 0.00 0.00 93 1016.1
20260506191223 18 0.0 0.0 0.00 0.00 0.00 94 1016.0
20260506190723 19 0.0 0.0 0.00 0.00 0.00 97 1016.0
20260506190223 19 0.0 0.0 0.00 0.00 0.00 10 1015.9
20260506185723 19 0.0 0.0 0.00 0.00 0.00 10 1015.9
20260506185223 18 0.0 0.0 0.00 0.00 0.00 97 1015.8
20260506184723 19 0.0 0.0 0.00 0.00 0.00 93 1015.8
20260506184223 19 0.0 0.0 0.00 0.00 0.00 94 1015.7
20260506183723 19 0.0 0.0 0.00 0.00 0.00 90 1015.6
20260506183223 19 0.0 0.0 0.00 0.00 0.00 87 1015.6
20260506182723 19 0.0 0.0 0.00 0.00 0.00 85 1015.5
20260506182223 19 0.0 0.0 0.00 0.00 0.00 86 1015.5
20260506181723 19 0.0 0.0 0.00 0.00 0.00 77 1015.4
20260506181223 20 0.0 0.0 0.00 0.00 0.00 73 1015.4
20260506180723 20 0.0 0.0 0.00 0.00 0.00 73 1015.3
20260506180223 20 0.0 0.0 0.00 0.00 0.00 68 1015.3
20260506175723 20 0.0 0.0 0.00 0.00 0.00 66 1015.1
20260506175223 20 0.0 0.0 0.00 0.00 0.00 64 1015.1
20260506174723 20 0.0 0.0 0.00 0.00 0.00 61 1015.1
20260506174223 20 0.0 0.0 0.00 0.00 0.00 60 1015.1
20260506173723 20 0.0 0.0 0.00 0.00 0.00 58 1015.0
20260506173223 20 0.0 0.0 0.00 0.00 0.00 56 1014.9
20260506172723 20 0.0 0.0 0.00 0.00 0.00 56 1014.9
20260506172223 20 0.0 0.0 0.00 0.00 0.00 53 1014.9
20260506171723 20 0.0 0.0 0.00 0.00 0.00 52 1014.9
20260506171223 20 0.0 0.0 0.00 0.00 0.00 53 1014.8
20260506170723 20 0.0 0.0 0.00 0.00 0.00 53 1014.9
20260506170223 20 0.0 0.0 0.00 0.00 0.00 56 1014.8
20260506165723 20 0.0 0.0 0.00 0.00 0.00 57 1014.7
20260506165223 20 0.0 0.0 0.00 0.00 0.00 59 1014.6
20260506164723 20 0.0 0.0 0.00 0.00 0.00 58 1014.6
20260506164223 20 0.0 0.0 0.00 0.00 0.00 60 1014.7
20260506163723 20 0.0 0.0 0.00 0.00 0.00 61 1014.8
20260506163223 20 0.0 0.0 0.00 0.00 0.00 61 1014.8
20260506162723 20 0.0 0.0 0.00 0.00 0.00 61 1014.7
20260506162223 20 0.0 0.0 0.00 0.00 0.00 60 1014.7
20260506161723 20 0.0 0.0 0.00 0.00 0.00 60 1014.7
20260506161222 20 0.0 0.0 0.00 0.00 0.00 60 1014.7
20260506160723 20 0.0 0.0 0.00 0.00 0.00 56 1014.7
20260506160223 20 0.0 0.0 0.00 0.00 0.00 55 1014.6
20260506155723 20 0.0 0.0 0.00 0.00 0.00 55 1014.7
20260506155223 20 0.0 0.0 0.00 0.00 0.00 54 1014.8
20260506154723 20 0.0 0.0 0.00 0.00 0.00 53 1014.7
20260506154222 21 0.0 0.0 0.00 0.00 0.00 53 1014.8
20260506153723 21 0.0 0.0 0.00 0.00 0.00 52 1014.7
20260506153223 21 0.0 0.0 0.00 0.00 0.00 52 1014.7
20260506152722 21 0.0 0.0 0.00 0.00 0.00 51 1014.7
20260506152223 21 0.0 0.0 0.00 0.00 0.00 51 1014.7
20260506151723 21 0.0 0.0 0.00 0.00 0.00 51 1014.8
20260506151222 21 0.0 0.0 0.00 0.00 0.00 51 1014.8
20260506150723 21 0.0 0.0 0.00 0.00 0.00 51 1014.9
20260506150222 21 0.0 0.0 0.00 0.00 0.00 52 1014.8
20260506145722 21 0.0 0.0 0.00 0.00 0.00 52 1014.8
20260506145222 21 0.0 0.0 0.00 0.00 0.00 49 1014.8
20260506144722 21 0.0 0.0 0.00 0.00 0.00 48 1014.9
20260506144222 21 0.0 0.0 0.00 0.00 0.00 48 1014.9
20260506143722 21 0.0 0.0 0.00 0.00 0.00 48 1014.9
20260506143222 21 0.0 0.0 0.00 0.00 0.00 48 1015.0
20260506142722 21 0.0 0.0 0.00 0.00 0.00 48 1014.9